MiSS Karli — WDF5923 — position and weather

sailwx.info

Track history (hours):
 
Tides and Currents Weather Stations Pressure Air Temp Water Temp Dewpoint Dewpoint Depression Visibility Wind Speed Wind Dir Waves Ship Positions

MiSS Karli

Owner: Crosby Marine Transportation LLC, Golden Meadow, LA. More information available from US FCC via Universal Licensing System and Coast Guard Vessel Documentation Center.

Last reported at 2018-Jun-20 05:26 UTC. Time now 2018-Jun-20 05:30 UTC.
Position N 29°58' W 093°52'.

Length 20 m; draft 2.6 m.

Type: Towing. MMSI: 367468730.

Date/timePositionNaut miles runAvg speedWind from/ knotsBaromVisibWave heightAir tempDewpointWater temp
2018-Jun-20 05:26N 29°58' W 093°52'0 0.0
2018-Jun-20 04:59N 29°58' W 093°52'0 0.0
2018-Jun-20 04:29N 29°58' W 093°52'0 0.0
2018-Jun-20 03:59N 29°58' W 093°52'0 0.0
2018-Jun-20 03:29N 29°58' W 093°52'0 0.0
2018-Jun-20 02:59N 29°58' W 093°52'0 0.0
2018-Jun-20 02:29N 29°58' W 093°52'0 0.0
2018-Jun-20 01:59N 29°58' W 093°52'0 0.0
2018-Jun-20 01:29N 29°58' W 093°52'0 0.0
2018-Jun-20 01:01N 29°58' W 093°52'0 0.0
2018-Jun-20 00:30N 29°58' W 093°52'0 0.0
2018-Jun-20 00:01N 29°58' W 093°52'0 0.0
2018-Jun-19 23:31N 29°58' W 093°52'0 0.0
2018-Jun-19 23:00N 29°58' W 093°52'0 0.0
2018-Jun-19 22:30N 29°58' W 093°52'0 0.0
2018-Jun-19 22:00N 29°58' W 093°52'0 0.0
2018-Jun-19 21:31N 29°58' W 093°52'1 1.7
2018-Jun-19 21:01N 29°57' W 093°52'1 1.2
2018-Jun-19 20:30N 29°58' W 093°52'0 0.0
2018-Jun-19 20:01N 29°58' W 093°52'0 0.0
2018-Jun-19 19:30N 29°58' W 093°52'0 0.2
2018-Jun-19 18:59N 29°58' W 093°52'1 1.1
2018-Jun-19 18:30N 29°57' W 093°52'2 3.8
2018-Jun-19 18:00N 29°59' W 093°53'2 4.7
2018-Jun-19 17:31N 29°59' W 093°55'1 2.4
2018-Jun-19 17:01N 29°60' W 093°57'0 0.1
2018-Jun-19 16:30N 29°60' W 093°57'0 0.0
2018-Jun-19 16:00N 29°60' W 093°57'0 0.0
2018-Jun-19 15:30N 29°60' W 093°57'0 0.0
2018-Jun-19 15:00N 29°60' W 093°57'0 0.0
2018-Jun-19 14:30N 29°60' W 093°57'0 0.0
2018-Jun-19 14:00N 29°60' W 093°57'0 0.0
2018-Jun-19 13:30N 29°60' W 093°57'0 0.0
2018-Jun-19 13:00N 29°60' W 093°57'0 0.0
2018-Jun-19 12:30N 29°60' W 093°57'0 0.0
2018-Jun-19 12:00N 29°60' W 093°57'0 0.0
2018-Jun-19 11:30N 29°60' W 093°57'0 0.0
2018-Jun-19 11:00N 29°60' W 093°57'0 0.0
2018-Jun-19 10:30N 29°60' W 093°57'0 0.0
2018-Jun-19 10:00N 29°60' W 093°57'0 0.0
2018-Jun-19 09:27N 29°60' W 093°57'0 0.0
2018-Jun-19 09:00N 29°60' W 093°57'0 0.0
2018-Jun-19 08:30N 29°60' W 093°57'0 0.0
2018-Jun-19 08:00N 29°60' W 093°57'0 0.0
2018-Jun-19 07:30N 29°60' W 093°57'0 0.0
2018-Jun-19 07:00N 29°60' W 093°57'0 0.0
2018-Jun-19 06:30N 29°60' W 093°57'0 0.0
2018-Jun-19 06:00N 29°60' W 093°57'0 0.0
2018-Jun-19 05:30N 29°60' W 093°57'0 0.0
2018-Jun-19 05:00N 29°60' W 093°57'0 0.0
2018-Jun-19 04:30N 29°60' W 093°57'0 0.0
2018-Jun-19 04:00N 29°60' W 093°57'0 0.0
2018-Jun-19 03:30N 29°60' W 093°57'0 0.0
2018-Jun-19 03:00N 29°60' W 093°57'0 0.0
2018-Jun-19 02:30N 29°60' W 093°57'0 0.0
2018-Jun-19 02:00N 29°60' W 093°57'0 0.0
2018-Jun-19 01:30N 29°60' W 093°57'0 0.1
2018-Jun-19 00:58N 29°60' W 093°57'0 0.1
2018-Jun-19 00:28N 29°60' W 093°57'0 0.0
2018-Jun-18 23:58N 29°60' W 093°57'0 0.0
2018-Jun-18 23:28N 29°60' W 093°57'0 0.0
2018-Jun-18 22:58N 29°60' W 093°57'0 0.1
2018-Jun-18 22:31N 29°60' W 093°56'3 6.7
2018-Jun-18 22:00N 29°59' W 093°53'1 2.4
2018-Jun-18 21:30N 29°58' W 093°52'0 0.0
2018-Jun-18 20:59N 29°58' W 093°52'2 4.4
2018-Jun-18 20:30N 29°59' W 093°54'2 4.6
2018-Jun-18 19:58N 29°60' W 093°57'0 0.0
2018-Jun-18 19:28N 29°60' W 093°57'0 0.0
2018-Jun-18 18:58N 29°60' W 093°57'0 0.0
2018-Jun-18 18:28N 29°60' W 093°57'0 0.0
2018-Jun-18 17:55N 29°60' W 093°57'0 0.0
2018-Jun-18 17:28N 29°60' W 093°57'0 0.2
2018-Jun-18 16:59N 29°60' W 093°57'0 0.1
2018-Jun-18 16:29N 29°60' W 093°57'0 0.1
2018-Jun-18 15:59N 29°60' W 093°57'0 0.0
2018-Jun-18 15:29N 29°60' W 093°57'0 0.0
2018-Jun-18 14:59N 29°60' W 093°57'0 0.0
2018-Jun-18 14:29N 29°60' W 093°57'0 0.0
2018-Jun-18 13:59N 29°60' W 093°57'0 0.0
2018-Jun-18 13:29N 29°60' W 093°57'0 0.0
2018-Jun-18 12:59N 29°60' W 093°57'0 0.0
2018-Jun-18 12:29N 29°60' W 093°57'0 0.0
2018-Jun-18 11:59N 29°60' W 093°57'0 0.0
2018-Jun-18 11:23N 29°60' W 093°57'0 0.7
2018-Jun-18 11:00N 29°60' W 093°56'2 4.5
2018-Jun-18 10:30N 29°59' W 093°54'2 4.2
2018-Jun-18 10:00N 29°58' W 093°51'2 4.8
2018-Jun-18 09:30N 29°56' W 093°52'2 4.1
2018-Jun-18 09:00N 29°54' W 093°54'2 4.1
2018-Jun-18 08:30N 29°53' W 093°55'2 3.9
2018-Jun-18 08:00N 29°51' W 093°57'2 3.8
2018-Jun-18 07:30N 29°50' W 093°58'2 4.4
2018-Jun-18 07:00N 29°49' W 093°60'2 4.6
2018-Jun-18 06:31N 29°47' W 094°02'2 4.5
2018-Jun-18 06:01N 29°45' W 094°04'2 4.4
2018-Jun-18 05:30N 29°44' W 094°06'2 3.3
2018-Jun-18 05:00N 29°43' W 094°07'2 4.0
2018-Jun-18 04:30N 29°42' W 094°09'2 4.0
2018-Jun-18 04:01N 29°41' W 094°11'2 4.1
2018-Jun-18 03:30N 29°40' W 094°13'2 4.2
2018-Jun-18 03:00N 29°39' W 094°15'2 4.1
2018-Jun-18 02:28N 29°38' W 094°18'2 4.1
2018-Jun-18 02:00N 29°37' W 094°20'2 3.5
2018-Jun-18 01:29N 29°37' W 094°22'2 3.7
2018-Jun-18 00:54N 29°36' W 094°24'2 3.6
2018-Jun-18 00:17N 29°34' W 094°25'29 3.2
2018-Jun-17 15:28N 29°38' W 094°58'2 4.9
2018-Jun-17 14:59N 29°40' W 094°59'3 0.1
2018-Jun-15 21:13N 29°42' W 095°01'2 5.3
2018-Jun-15 20:55N 29°42' W 094°59'2 5.1
2018-Jun-15 20:30N 29°40' W 094°58'3 5.6
2018-Jun-15 20:00N 29°37' W 094°57'3 5.5
2018-Jun-15 19:30N 29°35' W 094°56'12 5.8
2018-Jun-15 17:30N 29°25' W 094°49'3 5.8
2018-Jun-15 16:56N 29°21' W 094°49'3 5.6
2018-Jun-15 16:29N 29°20' W 094°51'3 5.0
2018-Jun-15 15:59N 29°18' W 094°53'4 4.2
2018-Jun-15 14:58N 29°17' W 094°58'2 4.3
2018-Jun-15 14:30N 29°16' W 094°59'2 4.6
2018-Jun-15 14:00N 29°14' W 095°01'2 4.5
2018-Jun-15 13:30N 29°12' W 095°03'2 4.8
2018-Jun-15 13:00N 29°11' W 095°05'2 4.8
2018-Jun-15 12:30N 29°10' W 095°08'2 3.7
2018-Jun-15 12:00N 29°11' W 095°09'2 3.9
2018-Jun-15 11:30N 29°12' W 095°11'2 3.3
2018-Jun-15 11:00N 29°13' W 095°13'0 0.1
2018-Jun-15 10:30N 29°13' W 095°13'0 0.0
2018-Jun-15 10:00N 29°13' W 095°13'0 0.0
2018-Jun-15 09:30N 29°13' W 095°13'0 0.0
2018-Jun-15 09:00N 29°13' W 095°13'0 0.0
2018-Jun-15 08:30N 29°13' W 095°13'0 0.0
2018-Jun-15 08:00N 29°13' W 095°13'0 0.0
2018-Jun-15 07:30N 29°13' W 095°13'0 0.0
2018-Jun-15 07:00N 29°13' W 095°13'0 0.0
2018-Jun-15 06:24N 29°13' W 095°13'0 0.0
2018-Jun-15 06:00N 29°13' W 095°13'0 0.0
2018-Jun-15 05:30N 29°13' W 095°13'0 0.0
2018-Jun-15 05:00N 29°13' W 095°13'0 0.0
2018-Jun-15 04:30N 29°13' W 095°13'0 0.0
2018-Jun-15 04:00N 29°13' W 095°13'0 0.0
2018-Jun-15 03:30N 29°13' W 095°13'0 0.0
2018-Jun-15 02:57N 29°13' W 095°13'0 0.0
2018-Jun-15 02:30N 29°13' W 095°13'0 0.0
2018-Jun-15 02:00N 29°13' W 095°13'0 0.0
2018-Jun-15 01:30N 29°13' W 095°13'0 0.0
2018-Jun-15 01:00N 29°13' W 095°13'0 0.0
2018-Jun-15 00:30N 29°13' W 095°13'0 0.0
2018-Jun-15 00:00N 29°13' W 095°13'0 0.0
2018-Jun-14 23:27N 29°13' W 095°13'0 0.0
2018-Jun-14 23:00N 29°13' W 095°13'0 0.0
2018-Jun-14 22:30N 29°13' W 095°13'0 0.0
2018-Jun-14 22:00N 29°13' W 095°13'0 0.0
2018-Jun-14 21:30N 29°13' W 095°13'0 0.0
2018-Jun-14 21:00N 29°13' W 095°13'0 0.0
2018-Jun-14 20:27N 29°13' W 095°13'0 0.0
2018-Jun-14 20:00N 29°13' W 095°13'0 0.0
2018-Jun-14 19:30N 29°13' W 095°13'0 0.0
2018-Jun-14 19:00N 29°13' W 095°13'0 0.0
2018-Jun-14 18:30N 29°13' W 095°13'0 0.0
2018-Jun-14 18:00N 29°13' W 095°13'0 0.0
2018-Jun-14 17:30N 29°13' W 095°13'0 0.0
2018-Jun-14 17:00N 29°13' W 095°13'0 0.0
2018-Jun-14 16:30N 29°13' W 095°13'0 0.0
2018-Jun-14 16:00N 29°13' W 095°13'0 0.0
2018-Jun-14 15:30N 29°13' W 095°13'0 0.0
2018-Jun-14 15:00N 29°13' W 095°13'0 0.0
2018-Jun-14 14:30N 29°13' W 095°13'0 0.0
2018-Jun-14 14:00N 29°13' W 095°13'0 0.0
2018-Jun-14 13:30N 29°13' W 095°13'0 0.0
2018-Jun-14 13:00N 29°13' W 095°13'0 0.0
2018-Jun-14 12:30N 29°13' W 095°13'0 0.0
2018-Jun-14 12:00N 29°13' W 095°13'0 0.0
2018-Jun-14 11:27N 29°13' W 095°13'0 0.0
2018-Jun-14 11:00N 29°13' W 095°13'0 0.0
2018-Jun-14 10:30N 29°13' W 095°13'0 0.0
2018-Jun-14 10:00N 29°13' W 095°13'0 0.0
2018-Jun-14 09:30N 29°13' W 095°13'0 0.0
2018-Jun-14 09:00N 29°13' W 095°13'0 0.0
2018-Jun-14 08:30N 29°13' W 095°13'0 0.0
2018-Jun-14 08:00N 29°13' W 095°13'0 0.0
2018-Jun-14 07:30N 29°13' W 095°13'0 0.0
2018-Jun-14 07:00N 29°13' W 095°13'0 0.0
2018-Jun-14 06:30N 29°13' W 095°13'0 0.0
2018-Jun-14 06:00N 29°13' W 095°13'0 0.0
2018-Jun-14 05:30N 29°13' W 095°13'0 0.0
2018-Jun-14 05:00N 29°13' W 095°13'0 0.0
2018-Jun-14 04:30N 29°13' W 095°13'0 0.0
2018-Jun-14 04:00N 29°13' W 095°13'0 0.0
2018-Jun-14 03:30N 29°13' W 095°13'0 0.0
2018-Jun-14 03:00N 29°13' W 095°13'0 0.0
2018-Jun-14 02:30N 29°13' W 095°13'0 0.0
2018-Jun-14 02:00N 29°13' W 095°13'0 0.0
2018-Jun-14 01:30N 29°13' W 095°13'0 0.0
2018-Jun-14 01:00N 29°13' W 095°13'0 0.0
2018-Jun-14 00:30N 29°13' W 095°13'0 0.0
2018-Jun-14 00:00N 29°13' W 095°13'0 0.0
2018-Jun-13 23:30N 29°13' W 095°13'0 0.0
2018-Jun-13 23:00N 29°13' W 095°13'0 0.0
2018-Jun-13 22:27N 29°13' W 095°13'0 0.0
2018-Jun-13 22:00N 29°13' W 095°13'0 0.0
2018-Jun-13 21:30N 29°13' W 095°13'0 0.0
2018-Jun-13 21:00N 29°13' W 095°13'0 0.0
2018-Jun-13 20:30N 29°13' W 095°13'0 0.0
2018-Jun-13 19:57N 29°13' W 095°13'0 0.0
2018-Jun-13 19:30N 29°13' W 095°13'0 0.0
2018-Jun-13 18:57N 29°13' W 095°13'0 0.0
2018-Jun-13 18:30N 29°13' W 095°13'0 0.0
2018-Jun-13 18:00N 29°13' W 095°13'0 0.0
2018-Jun-13 17:30N 29°13' W 095°13'0 0.0
2018-Jun-13 17:00N 29°13' W 095°13'0 0.0
2018-Jun-13 16:30N 29°13' W 095°13'0 0.0
2018-Jun-13 16:00N 29°13' W 095°13'0 0.0
2018-Jun-13 15:30N 29°13' W 095°13'0 0.0
2018-Jun-13 15:00N 29°13' W 095°13'0 0.0
2018-Jun-13 14:30N 29°13' W 095°13'0 0.0
2018-Jun-13 14:00N 29°13' W 095°13'0 0.0
2018-Jun-13 13:30N 29°13' W 095°13'0 0.0
2018-Jun-13 13:00N 29°13' W 095°13'0 0.4
2018-Jun-13 12:30N 29°13' W 095°12'0 0.0
2018-Jun-13 12:00N 29°13' W 095°12'0 0.0
2018-Jun-13 11:30N 29°13' W 095°12'0 0.4
2018-Jun-13 11:00N 29°13' W 095°13'0 0.0
2018-Jun-13 10:30N 29°13' W 095°13'0 0.0
2018-Jun-13 10:00N 29°13' W 095°13'0 0.0
2018-Jun-13 09:30N 29°13' W 095°13'0 0.2
2018-Jun-13 09:00N 29°13' W 095°13'0 0.7
2018-Jun-13 08:30N 29°13' W 095°12'0 0.0
2018-Jun-13 08:00N 29°13' W 095°12'0 0.0
2018-Jun-13 07:30N 29°13' W 095°12'0 0.0
2018-Jun-13 07:00N 29°13' W 095°12'0 0.0
2018-Jun-13 06:30N 29°13' W 095°12'0 0.0
2018-Jun-13 06:00N 29°13' W 095°12'0 0.0
2018-Jun-13 05:30N 29°13' W 095°12'0 0.0
2018-Jun-13 05:00N 29°13' W 095°12'0 0.0
2018-Jun-13 04:29N 29°13' W 095°12'0 0.0
2018-Jun-13 04:00N 29°13' W 095°12'0 0.0
2018-Jun-13 03:30N 29°13' W 095°12'0 0.0
2018-Jun-13 03:00N 29°13' W 095°12'0 0.0
2018-Jun-13 02:30N 29°13' W 095°12'0 0.0
2018-Jun-13 02:00N 29°13' W 095°12'0 0.0
2018-Jun-13 01:30N 29°13' W 095°12'0 0.0
2018-Jun-13 01:00N 29°13' W 095°12'1 2.8
2018-Jun-13 00:30N 29°12' W 095°11'2 4.7
2018-Jun-13 00:00N 29°11' W 095°08'2 3.9
2018-Jun-12 23:30N 29°10' W 095°06'3 5.9
2018-Jun-12 23:00N 29°12' W 095°03'2 4.4
2018-Jun-12 22:30N 29°14' W 095°02'3 5.9
2018-Jun-12 22:00N 29°16' W 094°59'3 5.5
2018-Jun-12 21:30N 29°17' W 094°57'3 5.5
2018-Jun-12 21:00N 29°17' W 094°54'3 5.8
2018-Jun-12 20:30N 29°19' W 094°51'3 4.8
2018-Jun-12 19:59N 29°21' W 094°49'2 4.3
2018-Jun-12 19:30N 29°23' W 094°49'15 6.2
2018-Jun-12 17:03N 29°36' W 094°57'3 6.2
2018-Jun-12 16:38N 29°39' W 094°58'2 6.2
2018-Jun-12 16:19N 29°41' W 094°59'2 0.2
2018-Jun-12 01:24N 29°42' W 095°01'3 6.0
2018-Jun-12 00:58N 29°41' W 094°59'4 6.5
2018-Jun-12 00:19N 29°37' W 094°57'3 6.6
2018-Jun-11 23:49N 29°34' W 094°55'11 6.3
2018-Jun-11 22:00N 29°24' W 094°49'2 4.2
2018-Jun-11 21:30N 29°22' W 094°47'31 5.4
2018-Jun-11 15:45N 29°39' W 094°17'2 6.0
2018-Jun-11 15:24N 29°40' W 094°14'2 6.0
2018-Jun-11 14:59N 29°41' W 094°12'3 4.7
2018-Jun-11 14:24N 29°42' W 094°09'2 5.2
2018-Jun-11 14:00N 29°43' W 094°07'3 6.1
2018-Jun-11 13:30N 29°45' W 094°04'3 6.2
2018-Jun-11 13:00N 29°47' W 094°01'3 6.1
2018-Jun-11 12:30N 29°49' W 093°59'3 5.5
2018-Jun-11 12:00N 29°51' W 093°57'3 6.0
2018-Jun-11 11:30N 29°53' W 093°55'3 6.0
2018-Jun-11 11:00N 29°56' W 093°52'3 5.6
2018-Jun-11 10:30N 29°58' W 093°51'3 6.3
2018-Jun-11 10:00N 29°59' W 093°47'3 6.0
2018-Jun-11 09:30N 30°01' W 093°45'3 5.2
2018-Jun-11 08:59N 30°03' W 093°43'2 4.9
2018-Jun-11 08:30N 30°04' W 093°40'3 5.1
2018-Jun-11 07:59N 30°04' W 093°37'3 5.9
2018-Jun-11 07:29N 30°04' W 093°34'3 5.9
2018-Jun-11 07:00N 30°04' W 093°30'3 6.1
2018-Jun-11 06:30N 30°04' W 093°27'3 6.2
2018-Jun-11 06:00N 30°04' W 093°23'2 4.4
2018-Jun-11 05:30N 30°04' W 093°21'2 3.7
2018-Jun-11 05:00N 30°06' W 093°20'3 6.4
2018-Jun-11 04:30N 30°09' W 093°20'3 6.5
2018-Jun-11 04:00N 30°11' W 093°18'1 2.3
2018-Jun-11 03:30N 30°12' W 093°19'1 1.5
2018-Jun-11 03:00N 30°12' W 093°19'0 0.1
2018-Jun-11 02:30N 30°12' W 093°19'0 0.0
2018-Jun-11 00:07N 30°12' W 093°19'0 0.0
2018-Jun-10 21:10N 30°12' W 093°19'0 0.0
2018-Jun-10 20:25N 30°12' W 093°19'0 0.0
2018-Jun-10 19:43N 30°12' W 093°19'0 0.0
2018-Jun-10 18:43N 30°12' W 093°19'0 0.0
2018-Jun-10 13:43N 30°12' W 093°19'0 0.0
2018-Jun-10 13:25N 30°12' W 093°19'0 0.0
2018-Jun-10 12:55N 30°12' W 093°19'0 0.0
2018-Jun-10 12:19N 30°12' W 093°19'0 0.0
2018-Jun-10 11:37N 30°12' W 093°19'0 0.0
2018-Jun-10 11:13N 30°12' W 093°19'0 0.0
2018-Jun-10 10:43N 30°12' W 093°19'0 0.0
2018-Jun-10 10:25N 30°12' W 093°19'0 0.0
2018-Jun-10 09:16N 30°12' W 093°19'0 0.0
2018-Jun-10 08:55N 30°12' W 093°19'0 0.0
2018-Jun-10 08:13N 30°12' W 093°19'0 0.0
2018-Jun-10 07:55N 30°12' W 093°19'0 0.0
2018-Jun-10 07:25N 30°12' W 093°19'0 0.0
2018-Jun-10 06:55N 30°12' W 093°19'0 0.0
2018-Jun-10 06:28N 30°12' W 093°19'0 0.0
2018-Jun-10 05:58N 30°12' W 093°19'0 0.0
2018-Jun-10 05:28N 30°12' W 093°19'  
Track history (hours):
 
Tides and Currents Weather Stations Pressure Air Temp Water Temp Dewpoint Dewpoint Depression Visibility Wind Speed Wind Dir Waves Ship Positions

MiSS Karli

Owner: Crosby Marine Transportation LLC, Golden Meadow, LA. More information available from US FCC via Universal Licensing System and Coast Guard Vessel Documentation Center.

Last reported at 2018-Jun-20 05:26 UTC. Time now 2018-Jun-20 05:30 UTC.
Position N 29°58' W 093°52'.

Length 20 m; draft 2.6 m.

Type: Towing. MMSI: 367468730.

Date/timePositionNaut miles runAvg speedWind from/ knotsBaromVisibWave heightAir tempDewpointWater temp
2018-Jun-20 05:26N 29°58' W 093°52'0 0.0
2018-Jun-20 04:59N 29°58' W 093°52'0 0.0
2018-Jun-20 04:29N 29°58' W 093°52'0 0.0
2018-Jun-20 03:59N 29°58' W 093°52'0 0.0
2018-Jun-20 03:29N 29°58' W 093°52'0 0.0
2018-Jun-20 02:59N 29°58' W 093°52'0 0.0
2018-Jun-20 02:29N 29°58' W 093°52'0 0.0
2018-Jun-20 01:59N 29°58' W 093°52'0 0.0
2018-Jun-20 01:29N 29°58' W 093°52'0 0.0
2018-Jun-20 01:01N 29°58' W 093°52'0 0.0
2018-Jun-20 00:30N 29°58' W 093°52'0 0.0
2018-Jun-20 00:01N 29°58' W 093°52'0 0.0
2018-Jun-19 23:31N 29°58' W 093°52'0 0.0
2018-Jun-19 23:00N 29°58' W 093°52'0 0.0
2018-Jun-19 22:30N 29°58' W 093°52'0 0.0
2018-Jun-19 22:00N 29°58' W 093°52'0 0.0
2018-Jun-19 21:31N 29°58' W 093°52'1 1.7
2018-Jun-19 21:01N 29°57' W 093°52'1 1.2
2018-Jun-19 20:30N 29°58' W 093°52'0 0.0
2018-Jun-19 20:01N 29°58' W 093°52'0 0.0
2018-Jun-19 19:30N 29°58' W 093°52'0 0.2
2018-Jun-19 18:59N 29°58' W 093°52'1 1.1
2018-Jun-19 18:30N 29°57' W 093°52'2 3.8
2018-Jun-19 18:00N 29°59' W 093°53'2 4.7
2018-Jun-19 17:31N 29°59' W 093°55'1 2.4
2018-Jun-19 17:01N 29°60' W 093°57'0 0.1
2018-Jun-19 16:30N 29°60' W 093°57'0 0.0
2018-Jun-19 16:00N 29°60' W 093°57'0 0.0
2018-Jun-19 15:30N 29°60' W 093°57'0 0.0
2018-Jun-19 15:00N 29°60' W 093°57'0 0.0
2018-Jun-19 14:30N 29°60' W 093°57'0 0.0
2018-Jun-19 14:00N 29°60' W 093°57'0 0.0
2018-Jun-19 13:30N 29°60' W 093°57'0 0.0
2018-Jun-19 13:00N 29°60' W 093°57'0 0.0
2018-Jun-19 12:30N 29°60' W 093°57'0 0.0
2018-Jun-19 12:00N 29°60' W 093°57'0 0.0
2018-Jun-19 11:30N 29°60' W 093°57'0 0.0
2018-Jun-19 11:00N 29°60' W 093°57'0 0.0
2018-Jun-19 10:30N 29°60' W 093°57'0 0.0
2018-Jun-19 10:00N 29°60' W 093°57'0 0.0
2018-Jun-19 09:27N 29°60' W 093°57'0 0.0
2018-Jun-19 09:00N 29°60' W 093°57'0 0.0
2018-Jun-19 08:30N 29°60' W 093°57'0 0.0
2018-Jun-19 08:00N 29°60' W 093°57'0 0.0
2018-Jun-19 07:30N 29°60' W 093°57'0 0.0
2018-Jun-19 07:00N 29°60' W 093°57'0 0.0
2018-Jun-19 06:30N 29°60' W 093°57'0 0.0
2018-Jun-19 06:00N 29°60' W 093°57'0 0.0
2018-Jun-19 05:30N 29°60' W 093°57'0 0.0
2018-Jun-19 05:00N 29°60' W 093°57'0 0.0
2018-Jun-19 04:30N 29°60' W 093°57'0 0.0
2018-Jun-19 04:00N 29°60' W 093°57'0 0.0
2018-Jun-19 03:30N 29°60' W 093°57'0 0.0
2018-Jun-19 03:00N 29°60' W 093°57'0 0.0
2018-Jun-19 02:30N 29°60' W 093°57'0 0.0
2018-Jun-19 02:00N 29°60' W 093°57'0 0.0
2018-Jun-19 01:30N 29°60' W 093°57'0 0.1
2018-Jun-19 00:58N 29°60' W 093°57'0 0.1
2018-Jun-19 00:28N 29°60' W 093°57'0 0.0
2018-Jun-18 23:58N 29°60' W 093°57'0 0.0
2018-Jun-18 23:28N 29°60' W 093°57'0 0.0
2018-Jun-18 22:58N 29°60' W 093°57'0 0.1
2018-Jun-18 22:31N 29°60' W 093°56'3 6.7
2018-Jun-18 22:00N 29°59' W 093°53'1 2.4
2018-Jun-18 21:30N 29°58' W 093°52'0 0.0
2018-Jun-18 20:59N 29°58' W 093°52'2 4.4
2018-Jun-18 20:30N 29°59' W 093°54'2 4.6
2018-Jun-18 19:58N 29°60' W 093°57'0 0.0
2018-Jun-18 19:28N 29°60' W 093°57'0 0.0
2018-Jun-18 18:58N 29°60' W 093°57'0 0.0
2018-Jun-18 18:28N 29°60' W 093°57'0 0.0
2018-Jun-18 17:55N 29°60' W 093°57'0 0.0
2018-Jun-18 17:28N 29°60' W 093°57'0 0.2
2018-Jun-18 16:59N 29°60' W 093°57'0 0.1
2018-Jun-18 16:29N 29°60' W 093°57'0 0.1
2018-Jun-18 15:59N 29°60' W 093°57'0 0.0
2018-Jun-18 15:29N 29°60' W 093°57'0 0.0
2018-Jun-18 14:59N 29°60' W 093°57'0 0.0
2018-Jun-18 14:29N 29°60' W 093°57'0 0.0
2018-Jun-18 13:59N 29°60' W 093°57'0 0.0
2018-Jun-18 13:29N 29°60' W 093°57'0 0.0
2018-Jun-18 12:59N 29°60' W 093°57'0 0.0
2018-Jun-18 12:29N 29°60' W 093°57'0 0.0
2018-Jun-18 11:59N 29°60' W 093°57'0 0.0
2018-Jun-18 11:23N 29°60' W 093°57'0 0.7
2018-Jun-18 11:00N 29°60' W 093°56'2 4.5
2018-Jun-18 10:30N 29°59' W 093°54'2 4.2
2018-Jun-18 10:00N 29°58' W 093°51'2 4.8
2018-Jun-18 09:30N 29°56' W 093°52'2 4.1
2018-Jun-18 09:00N 29°54' W 093°54'2 4.1
2018-Jun-18 08:30N 29°53' W 093°55'2 3.9
2018-Jun-18 08:00N 29°51' W 093°57'2 3.8
2018-Jun-18 07:30N 29°50' W 093°58'2 4.4
2018-Jun-18 07:00N 29°49' W 093°60'2 4.6
2018-Jun-18 06:31N 29°47' W 094°02'2 4.5
2018-Jun-18 06:01N 29°45' W 094°04'2 4.4
2018-Jun-18 05:30N 29°44' W 094°06'2 3.3
2018-Jun-18 05:00N 29°43' W 094°07'2 4.0
2018-Jun-18 04:30N 29°42' W 094°09'2 4.0
2018-Jun-18 04:01N 29°41' W 094°11'2 4.1
2018-Jun-18 03:30N 29°40' W 094°13'2 4.2
2018-Jun-18 03:00N 29°39' W 094°15'2 4.1
2018-Jun-18 02:28N 29°38' W 094°18'2 4.1
2018-Jun-18 02:00N 29°37' W 094°20'2 3.5
2018-Jun-18 01:29N 29°37' W 094°22'2 3.7
2018-Jun-18 00:54N 29°36' W 094°24'2 3.6
2018-Jun-18 00:17N 29°34' W 094°25'29 3.2
2018-Jun-17 15:28N 29°38' W 094°58'2 4.9
2018-Jun-17 14:59N 29°40' W 094°59'3 0.1
2018-Jun-15 21:13N 29°42' W 095°01'2 5.3
2018-Jun-15 20:55N 29°42' W 094°59'2 5.1
2018-Jun-15 20:30N 29°40' W 094°58'3 5.6
2018-Jun-15 20:00N 29°37' W 094°57'3 5.5
2018-Jun-15 19:30N 29°35' W 094°56'12 5.8
2018-Jun-15 17:30N 29°25' W 094°49'3 5.8
2018-Jun-15 16:56N 29°21' W 094°49'3 5.6
2018-Jun-15 16:29N 29°20' W 094°51'3 5.0
2018-Jun-15 15:59N 29°18' W 094°53'4 4.2
2018-Jun-15 14:58N 29°17' W 094°58'2 4.3
2018-Jun-15 14:30N 29°16' W 094°59'2 4.6
2018-Jun-15 14:00N 29°14' W 095°01'2 4.5
2018-Jun-15 13:30N 29°12' W 095°03'2 4.8
2018-Jun-15 13:00N 29°11' W 095°05'2 4.8
2018-Jun-15 12:30N 29°10' W 095°08'2 3.7
2018-Jun-15 12:00N 29°11' W 095°09'2 3.9
2018-Jun-15 11:30N 29°12' W 095°11'2 3.3
2018-Jun-15 11:00N 29°13' W 095°13'0 0.1
2018-Jun-15 10:30N 29°13' W 095°13'0 0.0
2018-Jun-15 10:00N 29°13' W 095°13'0 0.0
2018-Jun-15 09:30N 29°13' W 095°13'0 0.0
2018-Jun-15 09:00N 29°13' W 095°13'0 0.0
2018-Jun-15 08:30N 29°13' W 095°13'0 0.0
2018-Jun-15 08:00N 29°13' W 095°13'0 0.0
2018-Jun-15 07:30N 29°13' W 095°13'0 0.0
2018-Jun-15 07:00N 29°13' W 095°13'0 0.0
2018-Jun-15 06:24N 29°13' W 095°13'0 0.0
2018-Jun-15 06:00N 29°13' W 095°13'0 0.0
2018-Jun-15 05:30N 29°13' W 095°13'0 0.0
2018-Jun-15 05:00N 29°13' W 095°13'0 0.0
2018-Jun-15 04:30N 29°13' W 095°13'0 0.0
2018-Jun-15 04:00N 29°13' W 095°13'0 0.0
2018-Jun-15 03:30N 29°13' W 095°13'0 0.0
2018-Jun-15 02:57N 29°13' W 095°13'0 0.0
2018-Jun-15 02:30N 29°13' W 095°13'0 0.0
2018-Jun-15 02:00N 29°13' W 095°13'0 0.0
2018-Jun-15 01:30N 29°13' W 095°13'0 0.0
2018-Jun-15 01:00N 29°13' W 095°13'0 0.0
2018-Jun-15 00:30N 29°13' W 095°13'0 0.0
2018-Jun-15 00:00N 29°13' W 095°13'0 0.0
2018-Jun-14 23:27N 29°13' W 095°13'0 0.0
2018-Jun-14 23:00N 29°13' W 095°13'0 0.0
2018-Jun-14 22:30N 29°13' W 095°13'0 0.0
2018-Jun-14 22:00N 29°13' W 095°13'0 0.0
2018-Jun-14 21:30N 29°13' W 095°13'0 0.0
2018-Jun-14 21:00N 29°13' W 095°13'0 0.0
2018-Jun-14 20:27N 29°13' W 095°13'0 0.0
2018-Jun-14 20:00N 29°13' W 095°13'0 0.0
2018-Jun-14 19:30N 29°13' W 095°13'0 0.0
2018-Jun-14 19:00N 29°13' W 095°13'0 0.0
2018-Jun-14 18:30N 29°13' W 095°13'0 0.0
2018-Jun-14 18:00N 29°13' W 095°13'0 0.0
2018-Jun-14 17:30N 29°13' W 095°13'0 0.0
2018-Jun-14 17:00N 29°13' W 095°13'0 0.0
2018-Jun-14 16:30N 29°13' W 095°13'0 0.0
2018-Jun-14 16:00N 29°13' W 095°13'0 0.0
2018-Jun-14 15:30N 29°13' W 095°13'0 0.0
2018-Jun-14 15:00N 29°13' W 095°13'0 0.0
2018-Jun-14 14:30N 29°13' W 095°13'0 0.0
2018-Jun-14 14:00N 29°13' W 095°13'0 0.0
2018-Jun-14 13:30N 29°13' W 095°13'0 0.0
2018-Jun-14 13:00N 29°13' W 095°13'0 0.0
2018-Jun-14 12:30N 29°13' W 095°13'0 0.0
2018-Jun-14 12:00N 29°13' W 095°13'0 0.0
2018-Jun-14 11:27N 29°13' W 095°13'0 0.0
2018-Jun-14 11:00N 29°13' W 095°13'0 0.0
2018-Jun-14 10:30N 29°13' W 095°13'0 0.0
2018-Jun-14 10:00N 29°13' W 095°13'0 0.0
2018-Jun-14 09:30N 29°13' W 095°13'0 0.0
2018-Jun-14 09:00N 29°13' W 095°13'0 0.0
2018-Jun-14 08:30N 29°13' W 095°13'0 0.0
2018-Jun-14 08:00N 29°13' W 095°13'0 0.0
2018-Jun-14 07:30N 29°13' W 095°13'0 0.0
2018-Jun-14 07:00N 29°13' W 095°13'0 0.0
2018-Jun-14 06:30N 29°13' W 095°13'0 0.0
2018-Jun-14 06:00N 29°13' W 095°13'0 0.0
2018-Jun-14 05:30N 29°13' W 095°13'0 0.0
2018-Jun-14 05:00N 29°13' W 095°13'0 0.0
2018-Jun-14 04:30N 29°13' W 095°13'0 0.0
2018-Jun-14 04:00N 29°13' W 095°13'0 0.0
2018-Jun-14 03:30N 29°13' W 095°13'0 0.0
2018-Jun-14 03:00N 29°13' W 095°13'0 0.0
2018-Jun-14 02:30N 29°13' W 095°13'0 0.0
2018-Jun-14 02:00N 29°13' W 095°13'0 0.0
2018-Jun-14 01:30N 29°13' W 095°13'0 0.0
2018-Jun-14 01:00N 29°13' W 095°13'0 0.0
2018-Jun-14 00:30N 29°13' W 095°13'0 0.0
2018-Jun-14 00:00N 29°13' W 095°13'0 0.0
2018-Jun-13 23:30N 29°13' W 095°13'0 0.0
2018-Jun-13 23:00N 29°13' W 095°13'0 0.0
2018-Jun-13 22:27N 29°13' W 095°13'0 0.0
2018-Jun-13 22:00N 29°13' W 095°13'0 0.0
2018-Jun-13 21:30N 29°13' W 095°13'0 0.0
2018-Jun-13 21:00N 29°13' W 095°13'0 0.0
2018-Jun-13 20:30N 29°13' W 095°13'0 0.0
2018-Jun-13 19:57N 29°13' W 095°13'0 0.0
2018-Jun-13 19:30N 29°13' W 095°13'0 0.0
2018-Jun-13 18:57N 29°13' W 095°13'0 0.0
2018-Jun-13 18:30N 29°13' W 095°13'0 0.0
2018-Jun-13 18:00N 29°13' W 095°13'0 0.0
2018-Jun-13 17:30N 29°13' W 095°13'0 0.0
2018-Jun-13 17:00N 29°13' W 095°13'0 0.0
2018-Jun-13 16:30N 29°13' W 095°13'0 0.0
2018-Jun-13 16:00N 29°13' W 095°13'0 0.0
2018-Jun-13 15:30N 29°13' W 095°13'0 0.0
2018-Jun-13 15:00N 29°13' W 095°13'0 0.0
2018-Jun-13 14:30N 29°13' W 095°13'0 0.0
2018-Jun-13 14:00N 29°13' W 095°13'0 0.0
2018-Jun-13 13:30N 29°13' W 095°13'0 0.0
2018-Jun-13 13:00N 29°13' W 095°13'0 0.4
2018-Jun-13 12:30N 29°13' W 095°12'0 0.0
2018-Jun-13 12:00N 29°13' W 095°12'0 0.0
2018-Jun-13 11:30N 29°13' W 095°12'0 0.4
2018-Jun-13 11:00N 29°13' W 095°13'0 0.0
2018-Jun-13 10:30N 29°13' W 095°13'0 0.0
2018-Jun-13 10:00N 29°13' W 095°13'0 0.0
2018-Jun-13 09:30N 29°13' W 095°13'0 0.2
2018-Jun-13 09:00N 29°13' W 095°13'0 0.7
2018-Jun-13 08:30N 29°13' W 095°12'0 0.0
2018-Jun-13 08:00N 29°13' W 095°12'0 0.0
2018-Jun-13 07:30N 29°13' W 095°12'0 0.0
2018-Jun-13 07:00N 29°13' W 095°12'0 0.0
2018-Jun-13 06:30N 29°13' W 095°12'0 0.0
2018-Jun-13 06:00N 29°13' W 095°12'0 0.0
2018-Jun-13 05:30N 29°13' W 095°12'0 0.0
2018-Jun-13 05:00N 29°13' W 095°12'0 0.0
2018-Jun-13 04:29N 29°13' W 095°12'0 0.0
2018-Jun-13 04:00N 29°13' W 095°12'0 0.0
2018-Jun-13 03:30N 29°13' W 095°12'0 0.0
2018-Jun-13 03:00N 29°13' W 095°12'0 0.0
2018-Jun-13 02:30N 29°13' W 095°12'0 0.0
2018-Jun-13 02:00N 29°13' W 095°12'0 0.0
2018-Jun-13 01:30N 29°13' W 095°12'0 0.0
2018-Jun-13 01:00N 29°13' W 095°12'1 2.8
2018-Jun-13 00:30N 29°12' W 095°11'2 4.7
2018-Jun-13 00:00N 29°11' W 095°08'2 3.9
2018-Jun-12 23:30N 29°10' W 095°06'3 5.9
2018-Jun-12 23:00N 29°12' W 095°03'2 4.4
2018-Jun-12 22:30N 29°14' W 095°02'3 5.9
2018-Jun-12 22:00N 29°16' W 094°59'3 5.5
2018-Jun-12 21:30N 29°17' W 094°57'3 5.5
2018-Jun-12 21:00N 29°17' W 094°54'3 5.8
2018-Jun-12 20:30N 29°19' W 094°51'3 4.8
2018-Jun-12 19:59N 29°21' W 094°49'2 4.3
2018-Jun-12 19:30N 29°23' W 094°49'15 6.2
2018-Jun-12 17:03N 29°36' W 094°57'3 6.2
2018-Jun-12 16:38N 29°39' W 094°58'2 6.2
2018-Jun-12 16:19N 29°41' W 094°59'2 0.2
2018-Jun-12 01:24N 29°42' W 095°01'3 6.0
2018-Jun-12 00:58N 29°41' W 094°59'4 6.5
2018-Jun-12 00:19N 29°37' W 094°57'3 6.6
2018-Jun-11 23:49N 29°34' W 094°55'11 6.3
2018-Jun-11 22:00N 29°24' W 094°49'2 4.2
2018-Jun-11 21:30N 29°22' W 094°47'31 5.4
2018-Jun-11 15:45N 29°39' W 094°17'2 6.0
2018-Jun-11 15:24N 29°40' W 094°14'2 6.0
2018-Jun-11 14:59N 29°41' W 094°12'3 4.7
2018-Jun-11 14:24N 29°42' W 094°09'2 5.2
2018-Jun-11 14:00N 29°43' W 094°07'3 6.1
2018-Jun-11 13:30N 29°45' W 094°04'3 6.2
2018-Jun-11 13:00N 29°47' W 094°01'3 6.1
2018-Jun-11 12:30N 29°49' W 093°59'3 5.5
2018-Jun-11 12:00N 29°51' W 093°57'3 6.0
2018-Jun-11 11:30N 29°53' W 093°55'3 6.0
2018-Jun-11 11:00N 29°56' W 093°52'3 5.6
2018-Jun-11 10:30N 29°58' W 093°51'3 6.3
2018-Jun-11 10:00N 29°59' W 093°47'3 6.0
2018-Jun-11 09:30N 30°01' W 093°45'3 5.2
2018-Jun-11 08:59N 30°03' W 093°43'2 4.9
2018-Jun-11 08:30N 30°04' W 093°40'3 5.1
2018-Jun-11 07:59N 30°04' W 093°37'3 5.9
2018-Jun-11 07:29N 30°04' W 093°34'3 5.9
2018-Jun-11 07:00N 30°04' W 093°30'3 6.1
2018-Jun-11 06:30N 30°04' W 093°27'3 6.2
2018-Jun-11 06:00N 30°04' W 093°23'2 4.4
2018-Jun-11 05:30N 30°04' W 093°21'2 3.7
2018-Jun-11 05:00N 30°06' W 093°20'3 6.4
2018-Jun-11 04:30N 30°09' W 093°20'3 6.5
2018-Jun-11 04:00N 30°11' W 093°18'1 2.3
2018-Jun-11 03:30N 30°12' W 093°19'1 1.5
2018-Jun-11 03:00N 30°12' W 093°19'0 0.1
2018-Jun-11 02:30N 30°12' W 093°19'0 0.0
2018-Jun-11 00:07N 30°12' W 093°19'0 0.0
2018-Jun-10 21:10N 30°12' W 093°19'0 0.0
2018-Jun-10 20:25N 30°12' W 093°19'0 0.0
2018-Jun-10 19:43N 30°12' W 093°19'0 0.0
2018-Jun-10 18:43N 30°12' W 093°19'0 0.0
2018-Jun-10 13:43N 30°12' W 093°19'0 0.0
2018-Jun-10 13:25N 30°12' W 093°19'0 0.0
2018-Jun-10 12:55N 30°12' W 093°19'0 0.0
2018-Jun-10 12:19N 30°12' W 093°19'0 0.0
2018-Jun-10 11:37N 30°12' W 093°19'0 0.0
2018-Jun-10 11:13N 30°12' W 093°19'0 0.0
2018-Jun-10 10:43N 30°12' W 093°19'0 0.0
2018-Jun-10 10:25N 30°12' W 093°19'0 0.0
2018-Jun-10 09:16N 30°12' W 093°19'0 0.0
2018-Jun-10 08:55N 30°12' W 093°19'0 0.0
2018-Jun-10 08:13N 30°12' W 093°19'0 0.0
2018-Jun-10 07:55N 30°12' W 093°19'0 0.0
2018-Jun-10 07:25N 30°12' W 093°19'0 0.0
2018-Jun-10 06:55N 30°12' W 093°19'0 0.0
2018-Jun-10 06:28N 30°12' W 093°19'0 0.0
2018-Jun-10 05:58N 30°12' W 093°19'0 0.0
2018-Jun-10 05:28N 30°12' W 093°19'  

Dump ship's entire track history